When you browse on this site, cookies collect data to enhance your experience and personalize the content and advertising you see.
Visit our Privacy Policy to learn more. By continuing to use the site, you agree to this use of cookies and data.
  • In Hungary
  • List of Countries
  • For 7 days
  • Water Temperature
  • Satellite Maps
  • Weather Map
  • News
  • Weather Widgets
  • user-avatar
    Login

    Hourly Weather Mozyndor

    Today, 18 January, Friday

    Time Temperature Precipitation Wind Pressure Humidity
    00:00 -8°C° 0.2 mm 3 mps 727 mmHg 91%
    01:00 -9°C° 0.1 mm 3 mps 727 mmHg 92%
    02:00 -9°C° 0.1 mm 3 mps 727 mmHg 93%
    03:00 -9°C° 0 mm 3 mps 726 mmHg 94%
    04:00 -9°C° 0.1 mm 3 mps 725 mmHg 93%
    05:00 -10°C° 0.1 mm 3 mps 725 mmHg 93%
    06:00 -10°C° 0.1 mm 3 mps 725 mmHg 93%
    07:00 -10°C° 0.2 mm 3 mps 724 mmHg 93%
    08:00 -9°C° 0.2 mm 3 mps 724 mmHg 94%
    09:00 -9°C° 0 mm 3 mps 723 mmHg 94%
    10:00 -8°C° 0.3 mm 2 mps 723 mmHg 94%
    11:00 -7°C° 0.3 mm 2 mps 723 mmHg 94%
    12:00 -7°C° 0.3 mm 2 mps 723 mmHg 94%
    13:00 -7°C° 0.3 mm 2 mps 723 mmHg 95%
    14:00 -6°C° 0.3 mm 2 mps 723 mmHg 96%
    15:00 -4°C° 0.3 mm 1 mps 723 mmHg 97%
    16:00 -6°C° 0.2 mm 2 mps 723 mmHg 96%
    17:00 -5°C° 0.2 mm 2 mps 724 mmHg 95%
    18:00 -5°C° 0.2 mm 2 mps 724 mmHg 94%
    19:00 -7°C° 0 mm 3 mps 724 mmHg 92%
    20:00 -8°C° 0 mm 3 mps 725 mmHg 89%
    21:00 -9°C° 0 mm 3 mps 725 mmHg 87%
    22:00 -10°C° 0 mm 3 mps 726 mmHg 88%
    23:00 -12°C° 0 mm 3 mps 726 mmHg 90%

    Tomorrow, 19 January, Saturday

    Time Temperature Precipitation Wind Pressure Humidity
    00:00 -12°C° 0 mm 3 mps 727 mmHg 91%
    01:00 -13°C° 0 mm 3 mps 727 mmHg 91%
    02:00 -13°C° 0 mm 3 mps 728 mmHg 91%
    03:00 -13°C° 0 mm 3 mps 728 mmHg 92%
    04:00 -14°C° 0 mm 3 mps 729 mmHg 93%
    05:00 -14°C° 0 mm 2 mps 729 mmHg 94%
    06:00 -15°C° 0 mm 2 mps 730 mmHg 95%
    07:00 -16°C° 0 mm 2 mps 730 mmHg 96%
    08:00 -17°C° 0 mm 2 mps 730 mmHg 97%
    09:00 -16°C° 0 mm 1 mps 730 mmHg 98%
    10:00 -15°C° 0 mm 1 mps 730 mmHg 98%
    11:00 -15°C° 0 mm 1 mps 731 mmHg 97%
    12:00 -14°C° 0 mm 0 mps 731 mmHg 97%
    13:00 -14°C° 0 mm 0 mps 731 mmHg 97%
    14:00 -15°C° 0 mm 0 mps 731 mmHg 97%
    15:00 -15°C° 0 mm 0 mps 731 mmHg 97%
    16:00 -15°C° 0 mm 0 mps 732 mmHg 97%
    17:00 -16°C° 0 mm 1 mps 732 mmHg 97%
    18:00 -16°C° 0 mm 1 mps 732 mmHg 97%
    19:00 -16°C° 0 mm 1 mps 732 mmHg 97%
    20:00 -16°C° 0 mm 1 mps 733 mmHg 97%
    21:00 -17°C° 0 mm 1 mps 733 mmHg 97%
    22:00 -17°C° 0 mm 1 mps 733 mmHg 98%
    23:00 -18°C° 0 mm 1 mps 733 mmHg 98%

    Day after tomorrow, 20 January, Sunday

    Time Temperature Precipitation Wind Pressure Humidity
    00:00 -18°C° 0 mm 1 mps 734 mmHg 98%
    01:00 -19°C° 0 mm 1 mps 734 mmHg 98%
    02:00 -19°C° 0 mm 1 mps 734 mmHg 99%
    03:00 -19°C° 0 mm 1 mps 734 mmHg 99%
    04:00 -19°C° 0 mm 1 mps 734 mmHg 99%
    05:00 -19°C° 0 mm 1 mps 735 mmHg 99%
    06:00 -19°C° 0 mm 1 mps 735 mmHg 99%
    07:00 -19°C° 0 mm 1 mps 735 mmHg 98%
    08:00 -18°C° 0 mm 1 mps 735 mmHg 98%
    09:00 -18°C° 0 mm 1 mps 735 mmHg 98%
    10:00 -18°C° 0 mm 1 mps 735 mmHg 98%
    11:00 -17°C° 0 mm 1 mps 735 mmHg 97%
    12:00 -16°C° 0 mm 1 mps 735 mmHg 97%
    13:00 -16°C° 0 mm 1 mps 735 mmHg 97%
    14:00 -17°C° 0 mm 1 mps 735 mmHg 98%
    15:00 -17°C° 0 mm 1 mps 736 mmHg 98%
    16:00 -17°C° 0 mm 1 mps 736 mmHg 98%
    17:00 -17°C° 0 mm 1 mps 736 mmHg 98%
    18:00 -17°C° 0 mm 1 mps 736 mmHg 98%
    19:00 -17°C° 0 mm 1 mps 736 mmHg 98%
    20:00 -17°C° 0 mm 1 mps 736 mmHg 98%
    21:00 -18°C° 0 mm 1 mps 736 mmHg 98%
    22:00 -18°C° 0 mm 1 mps 736 mmHg 98%
    23:00 -19°C° 0 mm 1 mps 736 mmHg 98%

    21 January, Monday

    Time Temperature Precipitation Wind Pressure Humidity
    00:00 -19°C° 0 mm 1 mps 735 mmHg 99%
    01:00 -20°C° 0 mm 1 mps 735 mmHg 99%
    02:00 -20°C° 0 mm 1 mps 735 mmHg 99%
    03:00 -21°C° 0 mm 1 mps 735 mmHg 99%
    04:00 -21°C° 0 mm 1 mps 735 mmHg 99%
    05:00 -20°C° 0 mm 1 mps 734 mmHg 98%
    06:00 -20°C° 0 mm 1 mps 734 mmHg 98%
    07:00 -20°C° 0 mm 1 mps 734 mmHg 98%
    08:00 -20°C° 0 mm 1 mps 734 mmHg 98%
    09:00 -20°C° 0 mm 1 mps 734 mmHg 98%
    10:00 -19°C° 0 mm 1 mps 734 mmHg 98%
    11:00 -19°C° 0 mm 1 mps 734 mmHg 97%
    12:00 -18°C° 0 mm 1 mps 734 mmHg 96%
    13:00 -19°C° 0 mm 1 mps 734 mmHg 97%
    14:00 -19°C° 0 mm 1 mps 734 mmHg 97%
    15:00 -19°C° 0 mm 1 mps 734 mmHg 98%
    16:00 -20°C° 0 mm 1 mps 734 mmHg 98%
    17:00 -20°C° 0 mm 1 mps 735 mmHg 98%
    18:00 -20°C° 0 mm 1 mps 735 mmHg 98%
    19:00 -20°C° 0 mm 1 mps 735 mmHg 98%
    20:00 -21°C° 0 mm 1 mps 735 mmHg 98%
    21:00 -21°C° 0 mm 1 mps 736 mmHg 98%
    22:00 -21°C° 0 mm 1 mps 736 mmHg 98%
    23:00 -22°C° 0 mm 1 mps 736 mmHg 98%

    22 January, Tuesday

    Time Temperature Precipitation Wind Pressure Humidity
    00:00 -22°C° 0 mm 1 mps 736 mmHg 98%
    01:00 -22°C° 0 mm 1 mps 737 mmHg 98%
    02:00 -23°C° 0 mm 1 mps 737 mmHg 98%
    03:00 -23°C° 0 mm 1 mps 737 mmHg 98%
    04:00 -24°C° 0 mm 1 mps 737 mmHg 98%
    05:00 -24°C° 0 mm 1 mps 737 mmHg 98%
    06:00 -24°C° 0 mm 1 mps 737 mmHg 99%
    07:00 -25°C° 0 mm 1 mps 738 mmHg 99%
    08:00 -25°C° 0 mm 1 mps 738 mmHg 99%
    09:00 -27°C° 0 mm 1 mps 738 mmHg 99%
    10:00 -25°C° 0 mm 1 mps 738 mmHg 98%
    11:00 -24°C° 0 mm 1 mps 738 mmHg 98%
    12:00 -23°C° 0 mm 1 mps 739 mmHg 98%
    13:00 -23°C° 0 mm 1 mps 739 mmHg 98%
    14:00 -23°C° 0 mm 1 mps 739 mmHg 98%
    15:00 -24°C° 0 mm 1 mps 739 mmHg 98%
    16:00 -23°C° 0 mm 1 mps 739 mmHg 98%
    17:00 -23°C° 0 mm 1 mps 739 mmHg 98%
    18:00 -23°C° 0 mm 1 mps 740 mmHg 98%
    19:00 -23°C° 0 mm 1 mps 740 mmHg 98%
    20:00 -22°C° 0 mm 1 mps 740 mmHg 98%
    21:00 -22°C° 0 mm 1 mps 740 mmHg 98%
    22:00 -22°C° 0 mm 1 mps 740 mmHg 98%
    23:00 -21°C° 0 mm 1 mps 740 mmHg 98%

    23 January, Wednesday

    Time Temperature Precipitation Wind Pressure Humidity
    00:00 -21°C° 0 mm 1 mps 740 mmHg 98%
    01:00 -20°C° 0 mm 1 mps 741 mmHg 98%
    02:00 -20°C° 0 mm 1 mps 741 mmHg 98%
    03:00 -19°C° 0 mm 1 mps 741 mmHg 98%
    04:00 -23°C° 0 mm 2 mps 741 mmHg 98%
    05:00 -23°C° 0 mm 2 mps 741 mmHg 98%
    06:00 -23°C° 0 mm 2 mps 742 mmHg 99%
    07:00 -24°C° 0 mm 2 mps 742 mmHg 98%
    08:00 -24°C° 0 mm 2 mps 742 mmHg 98%
    09:00 -25°C° 0 mm 2 mps 742 mmHg 98%
    10:00 -24°C° 0 mm 2 mps 743 mmHg 97%
    11:00 -23°C° 0 mm 2 mps 743 mmHg 96%
    12:00 -20°C° 0 mm 2 mps 743 mmHg 95%
    13:00 -21°C° 0 mm 2 mps 743 mmHg 96%
    14:00 -21°C° 0 mm 2 mps 744 mmHg 96%
    15:00 -23°C° 0 mm 2 mps 744 mmHg 97%
    16:00 -23°C° 0 mm 2 mps 744 mmHg 96%
    17:00 -23°C° 0 mm 2 mps 744 mmHg 96%
    18:00 -21°C° 0 mm 2 mps 744 mmHg 95%
    19:00 -21°C° 0 mm 2 mps 744 mmHg 95%
    20:00 -21°C° 0 mm 2 mps 744 mmHg 95%
    21:00 -21°C° 0 mm 2 mps 744 mmHg 94%
    22:00 -23°C° 0 mm 3 mps 744 mmHg 94%
    23:00 -23°C° 0 mm 3 mps 744 mmHg 94%
    Show more